OBJECT D, 61230

Orbit data source: Space-Track

You're viewing an Uncataloged Satellite

Recently launched and/or uncataloged satellites may have evolving metadata. Metadata may include but not limited to: Owner, Maufacturer, Bus, Motor, and Mission.

OBJECT D, 61230 is a Chinese satellite in SSO that was launched on Tue, 24 Sep 2024 UTC via a JIELONG-3 launch vehicle from the Yellow Sea Launch Area, China (YSLA). Unknown objects in Earth's orbit typically refer to objects detected orbiting the Earth but have not yet been identified or cataloged. These objects could be anything from previously untracked satellites, spent rocket stages, debris from satellite collisions, or even natural meteoroids temporarily captured by Earth's gravity.

Loading next visibility...
Identifier
61230, 2024-173D
Orbit
SSO
Country
Flag of CNCN / PRC
Related business
None
Manufacturer
Unknown
Mission
Operational Commercial Radar Imaging
Bus & Motor
Unknown
Mass
Unknown
Launch date (UTC)
2024-09-24 (1 year ago)
Launch vehicle
JIELONG-3
Launch site
Yellow Sea Launch Area, China (YSLA)
Object type
Unknown
Shape & HBR
Box + 1 Pan, 0.5 m
Radar Cross Section
0.480 m², Medium (>0.1 m² and < 1m²)

Expand to show TLE details & history
Last TLE update: 16 hours ago

TLE from 16 hours ago
0 OBJECT D
1 61230U 24173D   25350.34296127  .00004377  00000-0  18403-3 0  9998
2 61230  97.3746  67.0209 0010911 177.4371 182.6924 15.23882138 68553
Epoch: 2025-12-16T08:13Z
TLE epoch observation values (Epoch: 2025-12-16T08:13:51.853Z)
Latitude
-0.00006°
Longitude
-141.67369°
Altitude
504.732 km
Speed
7.608 km/s
True Right ascension
04h 28m 05s
True Declination
0° 00' 00"
Sunlit
Object was in full shadow at epoch
Visualization orbit readout
Latitude
Unknown
Longitude
Unknown
Altitude
Unknown
Speed
Unknown
Apparent Right ascension
Unknown
Apparent Declination
Unknown
Sunlit
N/A
Visualization observer readout
Local Sidereal Time
23:22:02
Azimuth
Unknown
Elevation
Unknown
Doppler factor
Unknown
Orbital elements
Apogee altitude
498.599 km
Perigee altitude
483.608 km
Semi-major axis
6,869.241 km
Eccentricity
0.00109
Inclination
97.3746°
RAAN
67.0209°
Arg. of periapsis
177.4371°
True anomaly
182.68653°
Mean anomaly
182.6924°
Eccentric anomaly
182.68947°
Mean motion
3.81224 °/min
Orbital period
94.43 mins
BSTAR
0.00018403
Loading maneuver chart data...
Computing Atmospheric mass density...
Loading historical data...
Loading historical data...
Loading historical data...
Loading historical data...
Loading historical data...
Loading historical data...
Loading historical data...

Documentation

Showing up to 5 results
|